Volver al catálogo

GLOBALSTAR M048

ActivoComunicacionesUNKNOWN
NORAD 25872·PAYLOAD·🇺🇸 United States

Lanzado Jul 25, 1999 desde Cape Canaveral Space Force Station

Loading…

Próximos Pases (próximas 24 horas)

TLE

ActualizadoSource: Space-Track

Época: Sep 14, 2026, 22:40 UTC

1 25872U 99041A   26257.94451095 -.00000052  00000-0  47581-3 0  9992
2 25872  51.9406 336.4561 0013003 251.2176 282.4667 11.33865395176564

Sigue GLOBALSTAR M048 en tiempo real con AllMySat

Download on the App Store